Weather History for Winter Haven, FL

Change the Weather History Date:

Saturday, May 4, 2013

  Actual Average Record
Temperature  
Mean Temperature 75 °F -  
Max Temperature 82 °F 88 °F 96 °F (1986)
Min Temperature 68 °F 63 °F 53 °F (1971)
Cooling Degree Days 10    
Growing Degree Days 25 (Base 50)    
Moisture  
Dew Point 65 °F    
Average Humidity 81    
Maximum Humidity 96    
Minimum Humidity 52    
Precipitation  
Precipitation 0.00 in - - ()
Sea Level Pressure  
Sea Level Pressure 29.74 in    
Wind  
Wind Speed 9 mph (West)    
Max Wind Speed 17 mph    
Max Gust Speed 21 mph    
Visibility 10 miles    
Events      
Averages and records for this station are not official NWS values.
T = Trace of Precipitation, MM = Missing Value Source: NWS Daily Summary

Daily Weather History Graph

Daily Weather History Graph

Search for Another Location

Airport:

Trip Planner

Search our weather history database for the weather conditions in past years. The results will help you decide how hot, cold, wet, or windy it might be!

Date:

Astronomy

May. 04, 2013 Rise Set
Actual Time 6:44 AM EDT 8:03 PM EDT
Civil Twilight 6:19 AM EDT 8:28 PM EDT
Nautical Twilight 5:49 AM EDT 8:58 PM EDT
Astronomical Twilight 5:19 AM EDT 9:29 PM EDT
Moon 3:15 AM EDT (5/4) 3:24 PM EDT (5/4)
Length of Visible Light 14h 08m
Length of Day
13h 19m
Waning Crescent, 27% of the Moon is Illuminated
May 4
Waning Crescent
May 9
New
May 18
First Quarter
May 25
Full
May 31
Last Quarter

Hourly Weather History & Observations

Time (EDT) Temp. Heat Index Dew Point Humidity Pressure Visibility Wind Dir Wind Speed Gust Speed Precip Events Conditions
12:53 AM 68.0 °F - 66.0 °F 93% 29.73 in 10.0 mi WNW 8.1 mph - N/A   Overcast
1:47 AM 68.0 °F - 66.2 °F 94% 29.72 in 10.0 mi WNW 6.9 mph - N/A   Overcast
1:53 AM 68.0 °F - 66.0 °F 93% 29.72 in 10.0 mi WNW 8.1 mph - N/A   Overcast
2:05 AM 68.0 °F - 66.0 °F 93% 29.72 in 10.0 mi WNW 6.9 mph - N/A   Overcast
2:46 AM 68.0 °F - 66.9 °F 96% 29.70 in 10.0 mi WNW 9.2 mph - N/A   Overcast
2:53 AM 68.0 °F - 66.9 °F 96% 29.70 in 10.0 mi WNW 8.1 mph - N/A   Overcast
3:13 AM 68.0 °F - 66.9 °F 96% 29.70 in 10.0 mi West 10.4 mph - N/A   Overcast
3:53 AM 68.0 °F - 66.9 °F 96% 29.69 in 10.0 mi WNW 6.9 mph - N/A   Overcast
4:53 AM 68.0 °F - 66.0 °F 93% 29.69 in 10.0 mi WNW 6.9 mph - N/A   Overcast
5:33 AM 68.0 °F - 66.0 °F 93% 29.71 in 10.0 mi WNW 5.8 mph - N/A   Overcast
5:53 AM 68.0 °F - 66.0 °F 93% 29.70 in 10.0 mi NW 6.9 mph - N/A   Overcast
6:53 AM 68.0 °F - 66.0 °F 93% 29.72 in 10.0 mi West 6.9 mph - N/A   Overcast
7:53 AM 68.0 °F - 66.0 °F 93% 29.74 in 7.0 mi WSW 8.1 mph - N/A   Overcast
8:28 AM 68.0 °F - 66.0 °F 93% 29.74 in 10.0 mi WSW 6.9 mph - N/A   Overcast
8:44 AM 68.0 °F - 66.0 °F 93% 29.74 in 10.0 mi West 9.2 mph - N/A   Overcast
8:53 AM 68.0 °F - 66.0 °F 93% 29.74 in 10.0 mi West 10.4 mph - N/A   Overcast
9:10 AM 68.0 °F - 66.0 °F 93% 29.75 in 7.0 mi WSW 10.4 mph - N/A   Overcast
9:49 AM 69.8 °F - 66.2 °F 88% 29.75 in 10.0 mi WSW 8.1 mph - N/A   Overcast
9:53 AM 70.0 °F - 66.0 °F 87% 29.75 in 10.0 mi West 9.2 mph - N/A   Overcast
10:13 AM 71.1 °F - 66.0 °F 84% 29.76 in 10.0 mi West 10.4 mph - N/A   Overcast
10:21 AM 72.0 °F - 64.9 °F 78% 29.76 in 10.0 mi West 12.7 mph - N/A   Mostly Cloudy
10:36 AM 73.9 °F - 64.9 °F 73% 29.76 in 10.0 mi West 11.5 mph - N/A   Scattered Clouds
10:53 AM 73.0 °F - 64.0 °F 73% 29.76 in 10.0 mi WNW 13.8 mph - N/A   Mostly Cloudy
11:36 AM 75.9 °F - 64.9 °F 69% 29.77 in 10.0 mi West 12.7 mph - N/A   Overcast
11:53 AM 77.0 °F - 64.9 °F 66% 29.76 in 10.0 mi West 11.5 mph - N/A   Overcast
12:53 PM 77.0 °F - 64.0 °F 64% 29.75 in 10.0 mi WSW 9.2 mph 17.3 mph N/A   Overcast
1:53 PM 81.0 °F 82.5 °F 64.0 °F 56% 29.73 in 10.0 mi West 10.4 mph - N/A   Overcast
2:53 PM 82.0 °F 83.1 °F 63.0 °F 52% 29.71 in 10.0 mi West 17.3 mph - N/A   Mostly Cloudy
3:53 PM 80.1 °F 81.2 °F 62.1 °F 54% 29.72 in 10.0 mi West 12.7 mph 20.7 mph N/A   Scattered Clouds
4:53 PM 81.0 °F 81.9 °F 62.1 °F 52% 29.73 in 10.0 mi NW 11.5 mph - N/A   Overcast
5:53 PM 80.1 °F 81.5 °F 63.0 °F 56% 29.73 in 10.0 mi West 15.0 mph - N/A   Mostly Cloudy
6:53 PM 78.1 °F - 64.9 °F 64% 29.73 in 10.0 mi West 10.4 mph - N/A   Clear
7:53 PM 75.9 °F - 64.9 °F 69% 29.73 in 10.0 mi WSW 8.1 mph - N/A   Clear
8:53 PM 73.0 °F - 66.0 °F 79% 29.75 in 10.0 mi WSW 8.1 mph - N/A   Clear
9:53 PM 72.0 °F - 66.0 °F 81% 29.78 in 10.0 mi WSW 6.9 mph - N/A   Clear
10:53 PM 71.1 °F - 66.0 °F 84% 29.81 in 10.0 mi West 6.9 mph - N/A   Clear
11:53 PM 70.0 °F - 64.9 °F 84% 29.83 in 10.0 mi WNW 4.6 mph - N/A   Scattered Clouds